This demonstration page uses our WeatherBlox Daily Observations layout. Learn more.

Left ArrowRight Arrow

41.86663, -103.66717

Hourly Observations for November 21, 2019

Temp ( °F °C ) Dew Point ( °F °C ) Humidity (%) Winds ( mph kmh ) Pressure ( in mb ) Visibility ( mi km ) Precip ( " mm )
12:53 am 00:53 Cloudy 30 -1.1 25 -3.9 82 82 NNW 10 17 30.08 1019 10 16 0.00 0.00
1:53 am 01:53 Cloudy 30 -1.1 25 -3.9 82 82 NW 8 13 30.12 1020 10 16 0.00 0.00
2:53 am 02:53 Cloudy 30 -1.1 25 -3.9 82 82 NW 9 15 30.13 1020 10 16 0.00 0.00
3:09 am 03:09 Cloudy 30 -1.1 25 -3.9 82 82 NW 9 15 30.23 1024 10 16 0.00 0.00
3:53 am 03:53 Cloudy with Light Snow 29 -1.7 25 -3.9 85 85 NW 7 11 30.16 1021 4 6 0.00 0.00
4:09 am 04:09 Cloudy with Light Snow 29 -1.7 25 -3.9 85 85 NW 6 9 30.24 1024 4 6 0.01 0.25
4:53 am 04:53 Cloudy 28 -2.2 25 -3.9 88 88 NW 12 19 30.18 1022 7 11 0.01 0.25
5:53 am 05:53 Cloudy 28 -2.2 24 -4.4 85 85 WNW 9 15 30.19 1023 10 16 0.00 0.00
6:53 am 06:53 Cloudy 28 -2.2 24 -4.4 85 85 NW 7 11 30.20 1023 10 16 0.00 0.00
7:53 am 07:53 Cloudy 28 -2.2 22 -5.6 78 78 NW 8 13 30.23 1024 10 16 0.00 0.00
8:53 am 08:53 Cloudy 29 -1.7 22 -5.6 75 75 NW 10 17 30.24 1024 10 16 0.00 0.00
9:53 am 09:53 Cloudy 30 -1.1 23 -5 75 75 NW 6 9 30.25 1024 10 16 0.00 0.00
10:53 am 10:53 Cloudy 31 -0.6 23 -5 72 72 NNE 6 9 30.25 1024 10 16 0.00 0.00
11:53 am 11:53 Cloudy 32 0 24 -4.4 73 73 VRB 3 6 30.22 1024 10 16 0.00 0.00
12:35 pm 12:35 Partly Cloudy 32 0 23 -5 69 69 SSE 3 6 30.26 1025 10 16 0.00 0.00
12:53 pm 12:53 Mostly Sunny 32 0 23 -5 69 69 SSE 3 6 30.22 1023 10 16 0.00 0.00
1:53 pm 13:53 Sunny 34 1.1 21 -6.1 59 59 VRB 3 6 30.21 1023 10 16 0.00 0.00
2:53 pm 14:53 Sunny 32 0 21 -6.1 64 64 S 3 6 30.22 1023 10 16 0.00 0.00
3:53 pm 15:53 Sunny 31 -0.6 21 -6.1 67 67 Calm 30.23 1024 10 16 0.00 0.00
4:53 pm 16:53 Clear 29 -1.7 22 -5.6 75 75 SSW 5 7 30.24 1024 10 16 0.00 0.00
5:53 pm 17:53 Clear 27 -2.8 21 -6.1 78 78 Calm 30.25 1024 10 16 0.00 0.00
6:53 pm 18:53 Clear 23 -5 20 -6.7 88 88 NE 3 6 30.26 1025 10 16 0.00 0.00
7:53 pm 19:53 Clear 21 -6.1 18 -7.8 88 88 SE 5 7 30.28 1025 10 16 0.00 0.00
8:53 pm 20:53 Clear 21 -6.1 17 -8.3 85 85 NE 3 6 30.29 1026 10 16 0.00 0.00
9:53 pm 21:53 Clear 20 -6.7 17 -8.3 89 89 Calm 30.29 1026 10 16 0.00 0.00
10:53 pm 22:53 Clear 20 -6.7 15 -9.4 81 81 Calm 30.28 1025 10 16 0.00 0.00
11:53 pm 23:53 Clear 18 -7.8 14 -10 84 84 E 5 7 30.28 1025 10 16 0.00 0.00

Powered by AerisWeather